Location: *
(51.8167°N, 12.5000°E)
Time: 10:38:51
(UTC+00:00)

Daily predictions for brighter satellites

Satellite Brightness Start Highest point End
(mag) Time Altitude Azimuth Time Altitude Azimuth Time Altitude Azimuth
Cosmos 2154 Rocket 4.3 17:50:06 10° N 17:56:06 47° ENE 18:02:02 10° SE
Cosmos 1842 3.3 17:52:46 10° N 17:56:45 68° ENE 18:00:41 10° SSE
NOSS 3-3 (A) 4.3 17:52:27 10° SSW 17:58:05 45° ESE 18:04:24 10° NE
NOSS 3-3 (C) 4.3 17:52:34 10° SSW 17:58:12 45° ESE 18:04:29 10° NE
FREGAT/IRIS 3.0 17:55:35 10° SE 17:58:13 38° ENE 18:00:54 10° N
BREEZE M DEB (TANK) 2.2 17:56:34 10° SW 17:58:31 35° SSE 18:01:33 10° E
SPOT 3 Rocket 4.0 17:54:48 10° SE 17:59:35 41° ENE 18:04:24 10° N
Meteor 2-9 Rocket 4.4 17:54:18 10° S 17:59:52 51° E 18:05:20 10° NNE
Cosmos 1461 4.0 18:00:03 10° SSE 18:03:11 22° ESE 18:06:18 10° ENE
Cosmos 1833 4.2 17:57:53 10° SSW 18:03:32 66° ESE 18:09:10 10° NE
HJ-1C 3.3 18:03:29 10° SSE 18:06:51 81° ENE 18:10:16 10° NNW
Cosmos 2297 Rocket 4.0 18:08:39 10° E 18:09:00 10° E 18:09:21 10° E
Cosmos 2184 Rocket 4.0 18:05:43 10° N 18:11:58 87° E 18:18:15 10° S
CZ-4 R/B 3.9 18:09:26 10° SSW 18:12:41 25° W 18:16:00 10° NW
COSMOS 2455 3.3 18:07:10 10° NW 18:13:09 65° WSW 18:19:05 10° SSE
MONITOR-E 4.0 18:11:39 10° S 18:14:27 81° WSW 18:17:17 10° NNW
ARGOS 3.7 18:09:37 10° SE 18:14:34 40° ENE 18:19:34 10° N
USA 234 3.7 18:09:24 10° ENE 18:15:51 61° N 18:22:18 10° W
Cosmos 2333 Rocket 2.2 18:13:29 10° NNW 18:19:13 86° ENE 18:24:57 10° SSE
Cosmos 405 Rocket 4.4 18:18:54 13° E 18:19:28 13° E 18:21:13 10° ENE
Resurs 01 Rocket 2.8 18:18:22 12° ESE 18:21:43 26° ENE 18:25:25 10° N
SJ-11-01 4.3 18:17:03 10° SSE 18:21:47 71° ENE 18:26:32 10° N
Resurs 1-3 4.5 18:18:22 10° SE 18:22:11 32° ENE 18:26:06 10° N
Cosmos 1140 Rocket 4.4 18:18:24 10° N 18:23:01 31° NE 18:26:48 14° ESE
USA 186 1.9 18:21:30 10° SSE 18:24:49 63° ENE 18:28:14 10° N
Okean 1 Rocket 3.2 18:23:40 10° SSE 18:27:50 49° E 18:32:04 10° NNE
GP-B 3.1 18:23:27 10° N 18:27:56 89° W 18:32:23 10° S
Okean 2 Rocket 4.0 18:23:35 10° SSW 18:27:57 53° WNW 18:32:23 10° N
ADEOS Rocket 4.0 18:21:55 10° NNE 18:28:29 37° E 18:35:26 10° SSE
ATLAS 2AS CENTAUR R/B 3.0 18:22:09 10° NW 18:30:00 82° SW 18:37:11 10° SE
H-2A R/B 2.2 18:26:40 10° SE 18:31:26 52° ENE 18:36:19 10° N
Cosmos 2251 Rocket 4.4 18:28:53 10° NNW 18:34:06 52° WSW 18:39:18 10° S
Cosmos 2237 Rocket 2.5 18:28:52 10° NNW 18:34:28 53° NE 18:39:00 16° SE
Cosmos 1544 3.0 18:32:17 10° S 18:35:49 62° E 18:39:24 10° NNE
SAR-Lupe-2 3.4 18:33:22 10° NNE 18:36:59 75° ESE 18:40:33 10° S
Cosmos 1441 Rocket 3.1 18:35:21 10° S 18:39:08 62° E 18:42:53 10° NNE
In-Cosmos 22 4.3 18:35:35 10° N 18:40:47 50° ENE 18:45:25 13° SE
Cosmos 1980 3.8 18:37:29 10° NNW 18:43:07 62° NE 18:47:29 17° SE
Aureole 1 Rocket 4.1 18:37:36 10° NNW 18:43:19 56° WSW 18:47:36 10° S
Timation 2 Rocket 4.0 18:41:08 10° SSW 18:47:43 80° ESE 18:54:03 10° NE
SJ-6B 3.0 18:44:05 10° SSE 18:48:13 83° WSW 18:52:21 10° NNW
Cosmos 962 Rocket 4.5 18:42:46 10° N 18:49:04 71° ENE 18:55:24 10° SSE
Nadezhda 1 Rocket 3.9 18:43:26 10° S 18:49:30 86° E 18:55:38 10° N
Cosmos 1707 2.8 18:52:15 10° NNW 18:56:11 83° W 19:00:06 10° S
Cosmos 1674 3.8 18:53:17 10° NNE 18:56:29 26° ENE 18:57:02 25° E
CZ-2C R/B 3.6 18:52:26 10° NNE 18:56:58 88° ESE 19:01:25 10° SSW
ASTEX 1 3.4 18:52:08 10° N 18:57:04 88° WNW 19:01:57 10° S
Okean 1-7 Rocket 3.6 18:53:13 10° N 18:57:37 61° ENE 19:00:40 19° SSE
Cosmos 1190 Rocket 4.0 18:52:42 10° NNW 18:58:01 66° ENE 19:01:30 21° SE
Cosmos 1295 Rocket 4.5 18:53:14 10° N 18:59:30 89° W 19:05:39 10° S
Cosmos 1892 Rocket 3.6 18:55:30 10° N 18:59:57 62° ENE 19:02:54 20° SSE
Cosmos 389 Rocket 2.3 18:59:12 10° N 19:02:40 79° ENE 19:04:27 26° SSE
SL-16 R/B 2.9 18:57:25 10° NNW 19:02:45 39° NE 19:05:35 24° E
NOSS 0 Rocket 4.1 18:58:43 10° NW 19:04:56 77° WSW 19:10:04 16° SSE
CZ-2C R/B 3.1 19:04:05 20° SSE 19:07:39 64° ENE 19:13:06 10° N
COSMOS 2428 3.7 19:04:35 10° NW 19:09:57 44° WSW 19:15:18 10° S
Cosmos 1023 Rocket 4.5 19:07:06 10° NNW 19:12:17 66° ENE 19:14:53 29° SE
Meteor 1-4 Rocket 2.4 19:09:33 10° N 19:13:10 77° ENE 19:14:26 37° SSE
Cosmos 2219 Rocket 3.3 19:09:10 10° NW 19:14:25 42° WSW 19:19:37 10° S
ERBS 3.1 19:12:02 10° WNW 19:15:19 43° NNE 19:16:14 34° ENE
Cosmos 2341 Rocket 4.0 19:11:03 10° NNW 19:17:21 82° W 19:23:34 10° S
Cosmos 1766 4.4 19:19:19 27° ENE 19:19:19 27° ENE 19:21:56 10° NNE
Meteor 1-15 Rocket 4.2 19:16:27 10° S 19:22:11 76° E 19:28:04 10° NNE
Cosmos 2181 Rocket 3.9 19:18:45 10° S 19:24:55 68° E 19:31:14 10° NNE
Cosmos 2056 Rocket 3.7 19:22:13 10° S 19:27:26 50° ESE 19:32:39 10° NNE
SPOT 1/Viking Rocket 4.3 19:29:13 31° E 19:30:19 34° ENE 19:34:57 10° N
Cosmos 407 Rocket 3.7 19:27:12 10° NNW 19:32:18 65° WSW 19:35:14 25° S
SPOT 5 4.0 19:32:29 26° ENE 19:33:00 27° ENE 19:37:05 10° N
CZ-2C R/B 3.3 19:28:06 10° NNE 19:33:08 34° E 19:33:16 34° E
CZ-4C R/B 4.1 19:29:19 10° WNW 19:34:33 30° N 19:40:39 10° NE
SL-08 RB Rocket 4.0 19:31:35 21° S 19:34:37 66° WSW 19:39:17 10° NNW
RESURS DK-1 3.7 19:33:23 10° NNW 19:36:58 27° NE 19:37:20 26° NE
NOSS 3-4 (A) 4.4 19:30:22 10° NW 19:37:05 53° SW 19:42:04 21° SSE
NOSS 3-4 (C) 4.4 19:30:28 10° NW 19:37:11 53° SW 19:42:08 21° SSE
Cosmos 2219 3.1 19:32:01 10° SSW 19:37:43 69° ESE 19:43:27 10° NE
Cosmos 1624 Rocket 3.9 19:34:50 10° S 19:39:57 63° ESE 19:45:06 10° NNE
Cosmos 2218 Rocket 4.0 19:34:04 10° N 19:40:32 89° W 19:44:33 24° S
Cosmos 2227 Rocket 2.4 19:38:55 36° SSE 19:40:35 46° ESE 19:45:59 10° NE
Cosmos 1437 Rocket 2.5 19:36:52 10° N 19:40:44 78° ENE 19:40:57 74° ESE
Cosmos 614 Rocket 4.4 19:35:53 10° NNW 19:41:02 59° WSW 19:43:50 26° S
Cosmos 1461 3.4 19:38:02 10° WSW 19:41:58 57° NW 19:45:54 10° NE
Cosmos 1544 Rocket 3.5 19:44:31 54° SSE 19:45:24 71° E 19:49:52 10° NNE
Cosmos 1455 Rocket 2.9 19:44:42 37° S 19:46:25 86° E 19:50:54 10° NNE
Landsat 7 4.3 19:46:20 42° ENE 19:46:42 43° ENE 19:51:11 10° N
Cosmos 2366 rocket 4.0 19:41:55 10° N 19:48:18 85° W 19:52:02 27° S
SL-8 R/B 3.8 19:44:30 10° WSW 19:49:12 55° S 19:49:21 54° SSE
Cosmos 2297 Rocket 2.2 19:48:52 27° S 19:51:49 57° ESE 19:57:23 10° NE
Cosmos 1954 Rocket 3.9 19:47:20 10° NNW 19:52:37 83° WSW 19:54:06 48° SSE
ARGOS 4.4 19:49:52 10° SSW 19:54:51 39° W 19:59:54 10° NNW
Cosmos 405 Rocket 3.0 19:54:00 43° SW 19:54:59 61° WNW 19:58:40 10° N
Meteor 1-24 Rocket 3.7 19:49:55 10° NNW 19:55:38 89° WSW 19:57:50 41° S
MetOp-B 4.1 19:54:34 44° SSE 19:56:21 88° WSW 20:01:45 10° NNW
Cosmos 1821 Rocket 4.1 19:51:56 10° N 19:58:00 51° ENE 19:59:06 46° ESE
Resurs 01 Rocket 2.5 19:55:58 27° SSW 19:58:00 45° W 20:02:18 10° NNW
USA 234 3.6 19:54:50 27° E 19:58:30 61° N 20:04:56 10° WNW
Spot 2 Rocket 3.5 19:57:18 45° S 19:58:53 78° WSW 20:03:58 10° NNW
SL-8 Rocket 4.5 19:54:13 10° NNW 20:00:18 58° W 20:04:44 19° SSW
ERS-1 Rocket 3.1 20:00:25 53° E 20:00:46 54° ENE 20:05:41 10° N
Cosmos 2333 Rocket 4.5 19:58:52 10° WNW 20:02:47 19° W 20:06:42 10° SW
Cosmos 1626 Rocket 3.4 19:58:38 10° NNW 20:02:59 87° W 20:03:10 82° SSW
Cosmos 1626 3.6 20:00:50 10° N 20:02:56 28° NNE 20:02:56 28° NNE
Cosmos 1140 Rocket 4.0 20:00:03 10° NNW 20:05:06 52° WSW 20:06:49 36° SSW
Meteor 2-5 Rocket 4.3 19:59:57 10° NNW 20:05:36 58° W 20:08:43 27° SSW
Cosmos 1943 4.2 20:03:06 10° NNW 20:08:12 32° NE 20:09:13 30° ENE
Cosmos 1371 Rocket 4.2 20:04:51 10° SSW 20:10:08 71° WNW 20:15:32 10° NNE
H-2A R/B 3.9 20:07:05 10° SSW 20:11:10 26° W 20:15:21 10° NW
ADEOS Rocket 3.9 20:07:18 10° N 20:14:14 61° WNW 20:21:43 10° SW
Cosmos 1805 3.9 20:16:06 53° NNW 20:16:06 53° NNW 20:19:16 10° N
Cosmos 1758 Rocket 4.4 20:13:29 10° N 20:16:35 38° NNE 20:16:35 38° NNE
Terra 2.6 20:18:42 41° NE 20:18:42 41° NE 20:22:37 10° N
Cosmos 2237 Rocket 3.5 20:13:16 10° NW 20:18:21 34° WSW 20:20:51 24° SSW
Cosmos 1452 Rocket 4.4 20:24:05 35° NE 20:24:05 35° NE 20:27:17 10° NNE
Cosmos 1602 Rocket 3.7 20:18:00 10° NNW 20:22:09 68° WNW 20:22:09 68° WNW
Meteor 1-22 Rocket 4.4 20:27:37 39° SSW 20:30:03 79° WNW 20:36:13 10° N
Cosmos 1674 4.3 20:28:44 10° NNW 20:31:52 29° W 20:31:52 29° W
SL-14 R/B 4.5 20:35:56 10° NNW 20:38:42 41° NNW 20:38:42 41° NNW
Cosmos 1603 3.9 20:36:17 10° NNW 20:41:49 60° NE 20:41:49 60° NE
IGS 5A 4.4 20:44:29 46° NW 20:44:29 46° NW 20:47:32 10° NNW
SL-16 R/B 2.7 20:41:34 10° NW 20:47:01 49° WSW 20:47:27 48° SW
Cosmos 1850 Rocket 4.4 20:49:25 10° NNW 20:54:05 57° W 20:54:05 57° W
Cosmos 2082 3.8 21:05:13 73° NW 21:05:13 73° NW 21:10:46 10° NNE
Cosmos 1934 Rocket 3.9 21:00:23 10° N 21:06:21 83° WNW 21:06:21 83° WNW
SPOT 1/Viking Rocket 4.4 21:09:51 43° W 21:09:51 43° W 21:14:36 10° NNW
SPOT 5 3.8 21:11:43 45° WNW 21:11:43 45° WNW 21:15:36 10° NNW
CZ-2C R/B 3.5 21:08:17 10° N 21:13:34 48° WNW 21:14:46 41° WSW
RESURS DK-1 4.4 21:11:12 10° NW 21:13:13 26° NW 21:13:13 26° NW
MOS 1 Rocket 4.2 21:12:29 10° NNE 21:16:25 50° N 21:16:25 50° N
Cosmos 2227 Rocket 3.3 21:20:30 16° WSW 21:24:45 41° NW 21:30:07 10° NNE
CZ-4C R/B 3.8 21:18:47 10° NW 21:24:50 38° NNE 21:27:43 28° ENE
Nadezhda 3 Rocket 4.5 21:25:14 49° W 21:26:02 53° WNW 21:32:06 10° N
Mayak 1.5 21:28:07 10° NNE 21:28:29 12° NNE 21:28:29 12° NNE
Cosmos 2297 Rocket 3.6 21:31:03 10° WSW 21:36:11 34° NW 21:41:21 10° NNE
Thor Agena Rocket 4.4 21:34:44 10° N 21:38:48 48° NNW 21:38:48 48° NNW
Cosmos 1605 Rocket 4.2 21:33:50 10° NNW 21:39:37 68° NW 21:39:37 68° NW
USA 234 3.3 21:42:11 71° W 21:42:11 71° W 21:48:00 10° WNW
Cosmos 1943 4.1 21:47:03 10° NW 21:51:01 44° NW 21:51:01 44° NW
Cosmos 2100 Rocket 4.5 21:46:46 10° N 21:51:56 55° NNE 21:51:56 55° NNE
Cosmos 2263 Rocket 3.9 21:58:06 25° NE 21:58:06 25° NE 22:00:25 10° NE
Terra 3.8 21:57:35 24° WNW 21:57:35 24° WNW 22:00:12 10° NNW
USA 267 4.2 22:41:54 10° ENE 22:45:31 36° ENE 22:45:31 36° ENE
Cosmos 2082 Rocket 3.9 22:59:09 10° NNW 23:04:00 27° NE 23:04:35 27° NE
Cosmos 1844 Rocket 4.4 23:09:26 27° NE 23:09:26 27° NE 23:12:02 10° NE
Mayak 1.6 23:04:06 10° N 23:05:03 15° NNW 23:05:03 15° NNW
CZ-4C R/B 3.1 23:07:21 10° NW 23:12:51 61° NNW 23:12:51 61° NNW
ATLAS CENTAUR R/B 4.0 23:20:04 22° NNE 23:20:04 22° NNE 23:21:55 10° NE
COSMOS 2406 4.4 23:11:33 10° NNW 23:15:11 39° NNW 23:15:11 39° NNW
SL-16 R/B 3.9 23:19:07 29° ENE 23:19:58 30° NE 23:25:14 10° N
Cosmos 2263 Rocket 3.6 23:39:46 32° NNW 23:39:46 32° NNW 23:44:15 10° NNE
Lacrosse 5 4.1 23:44:07 19° ENE 23:44:07 19° ENE 23:45:37 10° ENE
Cosmos 2278 Rocket 3.9 23:51:38 25° ENE 23:51:38 25° ENE 23:54:38 10° NE
Cosmos 1833 Rocket 3.9 23:45:05 10° NNW 23:48:44 39° N 23:48:44 39° N
